Showing default

GALAXY 36, 54742

Orbit data source: Space-Track

GALAXY 36, 54742 is a payload satellite owned by Intelsat SA (US) (US) in GEO that was launched on Tue, 13 Dec 2022 UTC via an ARIANE 5ECA+ launch vehicle from the French Guiana (FRGUI). Payload-class satellites include a variety of spacecraft equipped with specific instruments for various scientific and technological missions. These include communications satellites like Starlink; space stations such as the ISS; scientific satellites like the Hubble; Earth observation satellites from companies like Planet Labs, Umbra, and HawkEye 360; GPS; miniature CubeSats for education and research; and military/defense satellites.

Loading next visibility...
Identifier
54742, 2022-170B
Orbit
GEO
Last TLE update
14 hours ago
Origin
Manufacturer
Maxar Space Sol
Mission
Operational Commercial Communications
Bus & Motor
SSL-1300, R-4D
Mass
3,150 kg wet, ~2,000 kg dry
Launch date (UTC)
2022-12-13 (3 years ago)
Launch vehicle
ARIANE 5ECA+
Launch site
French Guiana (FRGUI)
Object type
Payload
Rocket body
Debris
Shape & HBR
Box + 2 Pan, 12 m
Radar Cross Section
30.995 m², Large (>1 m²)

Expand to show TLE details & history

TLE from 14 hours ago
0 GALAXY 36
1 54742U 22170B   25181.69135198 -.00000185  00000-0  00000-0 0  9998
2 54742   0.0176 277.2706 0002636 181.9456 339.6594  1.00271327  9247
Epoch: 2025-06-30T16:35Z
TLE epoch observation values (Epoch: 2025-06-30T16:35:32.811Z)
Latitude
0.0129°
Longitude
-89.00471°
Altitude
35,775.746 km
Speed
3.075 km/s
True Right ascension
05h 15m 31s
True Declination
0° 00' 46"
Sunlit
Object was in daylight at epoch
Visualization orbit readout
Latitude
-0.00965°
Longitude
123.10696°
Altitude
35,797.172 km
Speed
3.074 km/s
Apparent Right ascension
19h 32m 16s
Apparent Declination
-6° 12' 26"
Sunlit
Object is in daylight
Visualization observer readout
Local Sidereal Time
18:19:30
Azimuth
155.746° SSE
Elevation
40.919°
Doppler factor
1
Orbital elements
Apogee altitude
35,798.909 km
Perigee altitude
35,776.679 km
Semi-major axis
42,165.931 km
Eccentricity
0.00026
Inclination
0.0176°
RAAN
277.2706°
Arg. of periapsis
181.9456°
True anomaly
Unknown
Mean anomaly
339.6594°
Eccentric anomaly
Unknown
Mean motion
0.25067 °/min
Orbital period
1,436.16 mins
BSTAR
0
Loading historical data...
54742 neighbors
Loading maneuver chart data...
Loading SW <> Apogee altitude chart data...
Loading historical data...
Loading historical data...
Loading historical data...
Loading historical data...
Loading historical data...
Loading historical data...
Loading historical data...
Other satellites on launch #170 in the year 2022 (2022-12-13 UTC)

GALAXY 36 Visibility forecast

Observer location: undefined°, undefined°

Span
Click to sort rows by Start time (UTC) header in descending order
Start Az.
Max El. time (UTC)
Max El. Az.
Max El.
End time (UTC)
End Az.
1440 mins2025-07-01 06:41:40.131Z155.755° SSE2025-07-01 14:20:40.131Z155.773° SSE33.23°2025-07-02 06:41:40.131Z155.762° SSE
|